Location: Bittkow
(50.3000°N, 19.0000°E)
Time: 05:32:43
(UTC+00:00)

Daily predictions for brighter satellites

Satellite Brightness Start Highest point End
(mag) Time Altitude Azimuth Time Altitude Azimuth Time Altitude Azimuth
SL-16 R/B 3.1 00:12:20 52° N 00:12:20 52° N 00:16:52 10° NNW
Cosmos 2341 Rocket 4.5 00:08:05 10° N 00:13:04 56° N 00:13:04 56° N
Cosmos 1943 Rocket 4.0 00:17:16 23° NNW 00:17:16 23° NNW 00:21:11 10° NNE
CZ-2D R/B 3.1 00:17:04 10° NNE 00:20:45 43° NE 00:20:45 43° NE
ATLAS 5 CENTAUR R/B 3.7 00:26:24 25° NE 00:26:24 25° NE 00:28:30 10° NE
Cosmos 2297 Rocket 3.3 00:25:20 10° NNW 00:28:49 38° NNW 00:28:49 38° NNW
Resurs 1-4 Rocket 2.9 00:31:07 10° NNE 00:34:54 48° NNE 00:34:54 48° NNE
Cosmos 2369 Rocket 3.9 00:41:05 23° NW 00:41:05 23° NW 00:45:23 10° NNE
Gbstr 26 Del rocket 4.5 00:44:54 63° WNW 00:46:22 80° N 00:54:13 10° E
CZ-4C R/B 4.2 00:47:10 18° NW 00:50:13 26° N 00:55:56 10° NE
Cosmos 1697 Rocket 4.1 00:50:48 27° ESE 00:51:26 27° ESE 00:56:05 10° NE
USA 267 3.6 00:48:33 10° ENE 00:54:53 49° SE 00:54:57 49° SE
Cosmos 1980 Rocket 4.4 00:53:32 13° SE 00:55:51 17° E 00:59:19 10° ENE
ATLAS 2AS CENTAUR R/B 4.5 00:53:19 10° NW 01:00:11 31° N 01:06:40 10° ENE
Cosmos 2263 Rocket 4.3 00:56:27 10° NNW 01:01:02 24° NE 01:05:37 10° E
Cosmos 1818 3.8 01:05:33 68° ENE 01:05:33 68° ENE 01:10:21 10° NE
Cosmos 1821 Rocket 4.5 01:02:21 10° N 01:08:36 57° ENE 01:11:56 27° SE
SL-8 Rocket 4.5 01:07:21 10° NNW 01:12:13 46° NW 01:12:13 46° NW
SL-24 R/B - RUBIN 2 4.4 01:20:16 70° SSW 01:21:02 81° SE 01:27:49 10° NE
Cosmos 2218 Rocket 4.3 01:18:36 10° NNW 01:24:05 50° WNW 01:24:05 50° WNW
Cosmos 2366 rocket 4.3 01:21:12 10° NNW 01:26:34 50° WNW 01:26:34 50° WNW
Cosmos 2227 Rocket 3.4 01:22:27 10° NW 01:25:13 29° NW 01:25:13 29° NW
Cosmos 1777 Rocket 4.2 01:23:08 10° NNW 01:28:23 69° ENE 01:32:21 17° SE
Cosmos 1992 Rocket 4.0 01:30:28 69° NW 01:30:28 69° NW 01:35:26 10° NNE
Cosmos 1656 3.4 01:30:38 83° SSW 01:30:52 88° ESE 01:36:26 10° NNE
USA 234 3.1 01:25:09 10° SE 01:31:42 81° SW 01:37:43 13° WNW
Lacrosse 5 2.7 01:32:48 39° SE 01:32:56 39° SE 01:37:39 10° ENE
Meteor 1-20 Rocket 4.1 01:29:22 10° N 01:34:53 80° ENE 01:36:40 44° SSE
Cosmos 1782 4.4 01:34:33 28° ESE 01:35:26 32° E 01:39:03 10° NNE
Nadezhda 3 Rocket 4.1 01:33:54 39° SSE 01:36:14 70° E 01:42:22 10° NNE
ADEOS II 2.0 01:33:04 10° NNE 01:38:20 72° WNW 01:38:28 72° W
CZ-4B R/B 3.5 01:35:52 10° N 01:40:47 64° WNW 01:40:47 64° WNW
Cosmos 972 Rocket 4.4 01:40:30 43° SSE 01:41:36 53° ESE 01:46:24 10° NNE
Timation 1 Rocket 4.5 01:38:39 10° NNW 01:44:40 75° ENE 01:50:41 10° SE
SL-08 R/B 3.5 01:47:13 56° NW 01:47:13 56° NW 01:51:04 10° NNW
Cosmos 220 Rocket 4.2 01:48:14 59° NNW 01:48:14 59° NNW 01:51:54 10° NNE
USA 276 4.2 01:49:16 25° E 01:49:16 25° E 01:50:51 10° E
Cosmos 2181 Rocket 4.5 01:47:57 40° WNW 01:48:07 40° WNW 01:53:56 10° N
NOSS 2-2 (C) 4.3 01:42:58 10° NW 01:48:22 86° SW 01:55:53 10° SE
Cosmos 1633 Rocket 4.0 01:46:15 10° NNW 01:48:58 35° NW 01:48:58 35° NW
IDEFIX/ARIANE 42P 2.9 01:46:06 10° NNE 01:51:22 63° ESE 01:53:41 33° S
Cosmos 1328 Rocket 3.5 01:51:45 78° SSE 01:52:01 85° E 01:56:30 10° N
IRS-1C 4.0 01:49:26 10° NNE 01:54:48 79° WNW 01:55:57 56° SW
Cosmos 1933 Rocket 3.8 01:50:38 10° N 01:54:59 66° ENE 01:57:16 27° SSE
SL-16 R/B 4.2 01:57:26 16° WNW 01:57:26 16° WNW 01:59:27 10° NW
Cosmos 2369 3.8 01:54:43 42° S 01:56:40 71° ESE 02:02:24 10° NNE
Cosmos 1606 4.0 01:59:13 31° NNW 01:59:13 31° NNW 02:01:31 10° N
ARIANE 5 R/B 2.4 01:55:16 10° NNE 02:00:26 88° WNW 02:01:51 49° SSW
Cosmos 1151 Rocket 2.9 02:00:39 73° WNW 02:00:39 73° WNW 02:05:00 10° N
IRS-1D 4.0 01:56:15 10° N 02:01:19 44° WNW 02:01:47 43° W
ATLAS CENTAUR R/B 4.3 01:46:04 10° W 02:01:26 55° N 02:07:04 10° ENE
CZ-2D R/B 3.4 01:57:48 10° N 02:02:01 24° WNW 02:02:04 24° WNW
ATLAS 5 CENTAUR R/B 2.9 02:07:56 27° NW 02:08:54 30° NNW 02:13:16 10° NE
CZ-4C R/B 3.4 02:08:59 21° SSE 02:11:18 65° ENE 02:14:52 10° N
Cosmos 2297 Rocket 4.3 02:10:14 10° NW 02:10:32 11° NW 02:10:32 11° NW
Resurs 1-4 Rocket 3.7 02:12:00 10° NNW 02:15:39 19° NW 02:15:58 19° WNW
Cosmos 1933 3.8 02:18:15 42° WNW 02:18:15 42° WNW 02:21:55 10° N
Cosmos 2082 4.0 02:13:52 10° NW 02:19:10 41° WSW 02:20:23 36° SW
Cosmos 2360 4.2 02:18:34 33° SSW 02:21:17 90° NE 02:27:05 10° NNE
USA 305 3.1 02:22:42 46° SSW 02:23:42 62° SSE 02:27:55 10° ENE
Meteor 1-26 Rocket 4.0 02:24:04 29° SSW 02:26:53 72° WNW 02:32:18 10° N
CZ-2D R/B 3.5 02:23:22 10° N 02:27:31 64° WNW 02:28:45 42° SW
USA 306 3.0 02:26:37 44° SSW 02:27:46 65° SSE 02:32:00 10° ENE
X-37B 1.9 02:29:08 29° SSE 02:29:08 29° SSE 02:31:34 10° ESE
SJ 16-02 1.7 02:25:05 10° NNW 02:29:28 65° ENE 02:33:50 10° SSE
PSLV R/B 4.4 02:28:18 10° NNE 02:32:24 47° E 02:36:27 10° S
Cosmos 389 Rocket 2.3 02:32:19 46° SSW 02:33:17 82° WNW 02:36:52 10° N
ASTEX 1 3.5 02:28:48 10° N 02:33:43 59° W 02:36:22 26° SSW
Gbstr 26 Del rocket 4.4 02:27:26 16° WNW 02:34:13 83° SSW 02:41:36 10° ESE
Cosmos 1697 Rocket 2.8 02:32:33 32° WSW 02:35:02 59° NW 02:40:37 10° NNE
H-2A R/B 2.0 02:32:44 10° S 02:37:05 71° WSW 02:41:34 10° NNW
CZ-2C R/B 3.2 02:32:41 10° NNE 02:37:42 55° E 02:42:46 10° S
USA 267 3.3 02:31:37 10° ENE 02:38:08 74° NNW 02:42:17 24° WSW
Cosmos 192 4.4 02:35:08 19° SSW 02:38:41 75° ESE 02:43:37 10° NNE
Cosmos 1980 Rocket 2.2 02:35:19 23° SSW 02:39:03 90° SE 02:44:46 10° NNE
COSMOS 2441 4.3 02:34:51 10° NNE 02:39:47 83° WNW 02:43:42 16° SSW
ERS-2 2.2 02:36:49 10° SSE 02:40:28 77° ENE 02:44:09 10° NNW
PAYLOAD A 4.2 02:35:52 10° NNE 02:40:34 63° ESE 02:45:12 10° S
CZ-4C R/B 4.3 02:34:55 10° NW 02:40:43 32° NNE 02:47:27 10° E
Iridium 2 3.6 02:39:48 36° SW 02:41:07 60° W 02:44:51 10° N
Cosmos 1602 4.4 02:40:03 10° NNW 02:43:13 32° W 02:43:13 32° W
Cosmos 2322 Rocket 4.1 02:39:58 10° SSE 02:44:45 29° ESE 02:49:35 10° NE
Cosmos 2263 Rocket 2.1 02:39:59 10° NNW 02:45:40 83° WSW 02:51:21 10° SSE
Cosmos 990 Rocket 4.3 02:40:45 10° NNW 02:45:57 71° ENE 02:51:09 10° SSE
Meteor 1-14 Rocket 4.3 02:42:00 10° NNW 02:47:26 50° W 02:52:46 10° SSW
SL-8 R/B 3.9 02:46:00 29° W 02:48:06 50° SSW 02:52:43 10° SE
SL-16 R/B 3.5 02:47:02 10° S 02:52:14 39° ESE 02:57:28 10° NE
Cosmos 1844 Rocket 4.4 02:47:10 10° NNW 02:52:17 34° NE 02:57:24 10° ESE
ATLAS 2AS CENTAUR R/B 3.5 02:45:13 10° NW 02:52:47 57° NE 02:59:46 10° ESE
USA 307 2.8 02:52:25 28° WSW 02:54:35 87° SSE 02:58:51 10° ENE
Cosmos 1812 2.7 02:52:36 10° S 02:56:27 84° E 03:00:19 10° NNE
Spot 4 Rocket 4.4 02:51:35 10° N 02:56:29 45° WNW 02:59:44 20° SW
Cosmos 2227 4.1 02:50:58 10° NNW 02:56:36 67° WSW 03:02:10 10° SSE
USA 308 2.8 02:55:23 27° WSW 02:57:41 89° SE 03:01:57 10° ENE
Cosmos 1500 3.3 02:56:38 10° NNW 03:00:24 52° W 03:04:07 10° S
Cosmos 972 4.4 02:59:29 16° SW 03:03:30 62° WNW 03:08:21 10° NNE
Landsat 5 4.1 03:01:04 10° SSW 03:05:17 39° W 03:09:31 10° NNW
Cosmos 1666 2.7 03:02:28 10° N 03:06:21 85° E 03:10:09 10° S
Meteor 1-5 Rocket 4.1 03:01:43 10° NNW 03:06:57 60° W 03:12:13 10° S
Meteor 2-6 Rocket 4.2 03:01:34 10° SSW 03:07:13 76° WNW 03:13:04 10° N
Cosmos 1934 Rocket 4.5 03:03:24 10° NNW 03:08:48 35° W 03:14:12 10° SSW
IRIDIUM 104 4.3 03:05:49 10° N 03:10:59 63° W 03:16:08 10° S
Cosmos 1238 Rocket 4.5 03:04:58 10° NNW 03:11:03 39° W 03:16:47 10° SSW
Cosmos 1782 3.9 03:10:11 20° WSW 03:11:47 26° WNW 03:15:14 10° NNW
ERBS 3.8 03:09:57 10° SSW 03:12:55 32° SE 03:15:57 10° ENE
Cosmos 2173 Rocket 4.4 03:06:48 10° N 03:13:07 72° ENE 03:19:28 10° SSE
Cosmos 1898 Rocket 3.4 03:09:01 10° NNW 03:14:17 78° WSW 03:19:33 10° SSE
USA 234 4.0 03:09:48 10° S 03:15:20 29° SW 03:20:56 10° WNW
ADEOS Rocket 3.1 03:08:53 10° S 03:15:44 71° WSW 03:21:54 10° NNW
Lacrosse 5 2.0 03:12:00 18° WSW 03:15:45 64° NNW 03:20:50 10° ENE
CZ-4B R/B 1.1 03:12:45 10° S 03:15:53 79° WSW 03:19:07 10° NNW
CZ-2C R/B 3.6 03:12:59 10° N 03:16:17 30° WNW 03:18:31 17° WSW
ADEOS II 3.9 03:14:23 10° NNW 03:17:09 15° NW 03:19:23 11° WNW
deb Chang Zheng 4 4.0 03:14:05 10° NNE 03:18:25 66° ESE 03:22:39 10° S
IRIDIUM 114 4.5 03:15:01 10° NNW 03:20:07 53° W 03:25:10 10° SSW
USA 276 2.1 03:21:38 18° W 03:23:56 87° S 03:27:10 10° E
USA 32 4.0 03:19:08 10° N 03:24:23 71° W 03:29:35 10° S
ADEOS 3.7 03:21:29 10° NNE 03:26:45 80° ESE 03:31:58 10° SSW
MSX 4.4 03:21:35 10° N 03:26:52 38° WNW 03:32:08 10° SW
Cosmos 858 Rocket 4.4 03:21:54 10° NNW 03:27:08 83° WSW 03:32:19 10° SSE
Cosmos 44 3.2 03:24:49 13° SW 03:28:49 62° NW 03:33:31 10° NE
Cosmos 1707 Rocket 3.5 03:26:10 10° SSW 03:30:30 81° W 03:34:52 10° N
IDEFIX/ARIANE 42P 3.8 03:26:23 10° N 03:30:33 24° WNW 03:34:28 11° WSW
Meteor 1-11 Rocket 3.8 03:26:21 10° NNW 03:32:06 59° W 03:37:40 10° S
Cosmos 921 Rocket 3.2 03:28:12 10° SW 03:32:15 48° WNW 03:36:20 10° NNE
Cosmos 2278 4.3 03:28:10 12° WSW 03:33:09 40° NW 03:38:31 10° NNE
Cosmos 2228 Rocket 3.9 03:31:34 10° SW 03:35:27 30° WNW 03:39:23 10° N
CZ-3B R/B 3.5 03:32:05 10° W 03:35:43 60° N 03:50:02 10° E
SAR-Lupe-4 3.7 03:34:03 10° S 03:37:35 52° W 03:41:07 10° NNW
Cosmos 1743 3.5 03:34:51 10° N 03:38:37 57° ENE 03:42:21 10° SSE
ARIANE 5 R/B 4.2 03:35:39 10° NNW 03:38:49 17° NW 03:41:58 10° W
PSLV R/B 4.1 03:38:03 10° SSE 03:42:05 79° ENE 03:46:12 10° NNW
Cosmos 2016 Rocket 4.2 03:37:07 10° N 03:43:17 80° E 03:49:23 10° SSE
Cosmos 1937 Rocket 3.5 03:38:16 10° NNW 03:43:22 62° WSW 03:48:26 10° S
Intercosmos 25 4.2 03:41:07 10° S 03:45:10 51° E 03:48:22 10° NNE
ALOS 2.3 03:41:32 10° NNE 03:46:15 89° WNW 03:50:54 10° SSW
Cosmos 1733 Rocket 3.0 03:42:34 10° NNW 03:46:55 67° W 03:51:13 10° S
SKYMED 2 3.7 03:43:27 10° SSE 03:47:47 84° ENE 03:52:10 10° NNW
Meteor 1-27 Rocket 3.9 03:42:50 10° SSW 03:48:46 70° WNW 03:54:41 10° N
SAR-Lupe-1 4.5 03:46:32 10° S 03:49:55 39° W 03:53:19 10° NNW
Cosmos 1536 3.2 03:46:44 10° NNW 03:50:38 44° W 03:54:30 10° SSW
Cosmos 1484 Rocket 2.9 03:51:08 10° N 03:55:04 64° WNW 03:59:02 10° SSW
ATLAS 5 CENTAUR R/B 3.9 03:51:41 10° NW 03:55:05 19° N 03:58:51 10° NE
